TimePDT,TemperatureF,Dew PointF,Humidity,Sea Level PressureIn,VisibilityMPH,Wind Direction,Wind SpeedMPH,Gust SpeedMPH,PrecipitationIn,Events,Conditions,WindDirDegrees,DateUTC
12:15 AM,46.4,14.0,27,30.11,10.0,Calm,Calm,-,N/A,,Clear,0,2012-10-07 07:15:00
12:35 AM,44.6,12.2,27,30.12,10.0,Calm,Calm,-,N/A,,Clear,0,2012-10-07 07:35:00
12:55 AM,46.4,14.0,27,30.11,10.0,Calm,Calm,-,N/A,,Clear,0,2012-10-07 07:55:00
1:15 AM,44.6,14.0,29,30.12,10.0,Calm,Calm,-,N/A,,Clear,0,2012-10-07 08:15:00
1:35 AM,41.0,14.0,33,30.12,10.0,Calm,Calm,-,N/A,,Clear,0,2012-10-07 08:35:00
1:55 AM,41.0,12.2,31,30.12,10.0,Calm,Calm,-,N/A,,Clear,0,2012-10-07 08:55:00
2:15 AM,42.8,14.0,31,30.12,10.0,Calm,Calm,-,N/A,,Clear,0,2012-10-07 09:15:00
2:35 AM,37.4,12.2,36,30.12,10.0,North,3.5,-,N/A,,Clear,360,2012-10-07 09:35:00
2:55 AM,41.0,14.0,33,30.12,10.0,Calm,Calm,-,N/A,,Clear,0,2012-10-07 09:55:00
3:15 AM,35.6,10.4,35,30.12,10.0,Calm,Calm,-,N/A,,Clear,0,2012-10-07 10:15:00
3:35 AM,35.6,10.4,35,30.12,10.0,NW,3.5,-,N/A,,Clear,310,2012-10-07 10:35:00
3:55 AM,35.6,8.6,33,30.12,10.0,Calm,Calm,-,N/A,,Clear,0,2012-10-07 10:55:00
4:15 AM,39.2,12.2,33,30.12,10.0,NE,5.8,-,N/A,,Clear,40,2012-10-07 11:15:00
4:35 AM,37.4,14.0,38,30.12,10.0,Calm,Calm,-,N/A,,Clear,0,2012-10-07 11:35:00
4:55 AM,35.6,10.4,35,30.12,10.0,West,3.5,-,N/A,,Clear,260,2012-10-07 11:55:00
5:15 AM,37.4,10.4,33,30.12,10.0,Calm,Calm,-,N/A,,Clear,0,2012-10-07 12:15:00
5:35 AM,37.4,12.2,36,30.12,10.0,Calm,Calm,-,N/A,,Clear,0,2012-10-07 12:35:00
5:55 AM,35.6,12.2,38,30.12,10.0,Calm,Calm,-,N/A,,Clear,0,2012-10-07 12:55:00
6:15 AM,35.6,10.4,35,30.13,10.0,Calm,Calm,-,N/A,,Clear,0,2012-10-07 13:15:00
6:35 AM,33.8,10.4,38,30.13,10.0,Calm,Calm,-,N/A,,Clear,0,2012-10-07 13:35:00
6:55 AM,37.4,10.4,33,30.14,10.0,Calm,Calm,-,N/A,,Clear,0,2012-10-07 13:55:00
7:15 AM,32.0,6.8,35,30.14,10.0,Calm,Calm,-,N/A,,Clear,0,2012-10-07 14:15:00
7:35 AM,33.8,8.6,35,30.15,10.0,North,3.5,-,N/A,,Clear,350,2012-10-07 14:35:00
7:55 AM,37.4,10.4,33,30.16,10.0,NNW,3.5,-,N/A,,Clear,330,2012-10-07 14:55:00
8:15 AM,39.2,10.4,31,30.16,10.0,Calm,Calm,-,N/A,,Clear,0,2012-10-07 15:15:00
8:35 AM,41.0,14.0,33,30.16,10.0,Calm,Calm,-,N/A,,Clear,0,2012-10-07 15:35:00
8:55 AM,44.6,15.8,31,30.16,10.0,Calm,Calm,-,N/A,,Clear,0,2012-10-07 15:55:00
9:15 AM,48.2,15.8,27,30.16,10.0,Calm,Calm,-,N/A,,Clear,0,2012-10-07 16:15:00
9:35 AM,50.0,15.8,26,30.16,10.0,Calm,Calm,-,N/A,,Clear,0,2012-10-07 16:35:00
9:55 AM,55.4,10.4,17,30.15,10.0,East,3.5,-,N/A,,Clear,100,2012-10-07 16:55:00
10:15 AM,57.2,5.0,12,30.15,6.0,SE,8.1,-,N/A,,Haze,130,2012-10-07 17:15:00
10:35 AM,59.0,5.0,12,30.14,10.0,SE,8.1,-,N/A,,Clear,140,2012-10-07 17:35:00
10:55 AM,59.0,8.6,14,30.15,10.0,East,5.8,-,N/A,,Clear,90,2012-10-07 17:55:00
11:15 AM,60.8,6.8,12,30.14,10.0,SE,6.9,-,N/A,,Clear,140,2012-10-07 18:15:00
11:35 AM,62.6,6.8,11,30.13,10.0,ESE,8.1,-,N/A,,Clear,110,2012-10-07 18:35:00
11:55 AM,62.6,6.8,11,30.13,10.0,East,8.1,-,N/A,,Clear,90,2012-10-07 18:55:00
12:35 PM,64.4,6.8,10,30.12,10.0,ESE,9.2,-,N/A,,Clear,110,2012-10-07 19:35:00
12:55 PM,64.4,6.8,10,30.11,10.0,ESE,9.2,-,N/A,,Clear,120,2012-10-07 19:55:00
1:15 PM,66.2,6.8,10,30.10,10.0,East,3.5,-,N/A,,Clear,100,2012-10-07 20:15:00
1:35 PM,66.2,8.6,11,30.09,10.0,ESE,10.4,-,N/A,,Clear,120,2012-10-07 20:35:00
1:55 PM,66.2,8.6,11,30.08,10.0,East,8.1,16.1,N/A,,Clear,90,2012-10-07 20:55:00
2:15 PM,68.0,10.4,11,30.07,10.0,East,8.1,-,N/A,,Clear,90,2012-10-07 21:15:00
2:35 PM,68.0,12.2,12,30.06,10.0,East,12.7,-,N/A,,Clear,100,2012-10-07 21:35:00
2:55 PM,68.0,12.2,12,30.05,10.0,SE,10.4,-,N/A,,Clear,140,2012-10-07 21:55:00
3:15 PM,68.0,10.4,11,30.05,10.0,East,8.1,-,N/A,,Clear,100,2012-10-07 22:15:00
3:35 PM,69.8,8.6,9,30.04,10.0,East,10.4,17.3,N/A,,Clear,90,2012-10-07 22:35:00
3:55 PM,68.0,8.6,10,30.04,10.0,East,11.5,19.6,N/A,,Clear,80,2012-10-07 22:55:00
4:15 PM,68.0,8.6,10,30.04,10.0,ESE,8.1,-,N/A,,Clear,110,2012-10-07 23:15:00
4:35 PM,68.0,8.6,10,30.03,10.0,ENE,9.2,-,N/A,,Clear,70,2012-10-07 23:35:00
4:55 PM,68.0,8.6,10,30.03,10.0,ENE,9.2,-,N/A,,Clear,70,2012-10-07 23:55:00
5:15 PM,68.0,8.6,10,30.03,10.0,ENE,8.1,-,N/A,,Clear,70,2012-10-08 00:15:00
5:35 PM,68.0,8.6,10,30.03,10.0,ENE,9.2,-,N/A,,Clear,60,2012-10-08 00:35:00
5:55 PM,66.2,8.6,11,30.03,10.0,NE,8.1,-,N/A,,Clear,40,2012-10-08 00:55:00
6:15 PM,64.4,8.6,11,30.03,10.0,NE,6.9,-,N/A,,Clear,50,2012-10-08 01:15:00
6:35 PM,62.6,6.8,11,30.03,10.0,ENE,5.8,-,N/A,,Clear,60,2012-10-08 01:35:00
6:55 PM,60.8,8.6,13,30.04,10.0,SSW,4.6,-,N/A,,Clear,210,2012-10-08 01:55:00
7:15 PM,59.0,6.8,13,30.04,10.0,WSW,5.8,-,N/A,,Clear,250,2012-10-08 02:15:00
7:35 PM,55.4,8.6,15,30.05,10.0,West,5.8,-,N/A,,Clear,260,2012-10-08 02:35:00
7:55 PM,55.4,8.6,15,30.05,10.0,West,4.6,-,N/A,,Clear,270,2012-10-08 02:55:00
8:15 PM,50.0,5.0,16,30.06,10.0,NNW,4.6,-,N/A,,Clear,340,2012-10-08 03:15:00
8:35 PM,50.0,5.0,16,30.06,10.0,North,4.6,-,N/A,,Clear,350,2012-10-08 03:35:00
8:55 PM,50.0,6.8,17,30.06,10.0,North,5.8,-,N/A,,Clear,360,2012-10-08 03:55:00
9:15 PM,50.0,6.8,17,30.07,10.0,North,3.5,-,N/A,,Clear,360,2012-10-08 04:15:00
9:35 PM,42.8,3.2,19,30.07,10.0,NNW,4.6,-,N/A,,Clear,340,2012-10-08 04:35:00
9:55 PM,41.0,3.2,21,30.06,10.0,North,6.9,-,N/A,,Clear,360,2012-10-08 04:55:00
10:15 PM,46.4,5.0,18,30.06,10.0,North,4.6,-,N/A,,Clear,350,2012-10-08 05:15:00
10:35 PM,41.0,3.2,21,30.06,10.0,NNW,9.2,-,N/A,,Clear,340,2012-10-08 05:35:00
10:55 PM,41.0,5.0,23,30.06,10.0,NNW,8.1,-,N/A,,Clear,340,2012-10-08 05:55:00
11:15 PM,41.0,5.0,23,30.06,10.0,NNW,4.6,-,N/A,,Clear,330,2012-10-08 06:15:00
11:35 PM,41.0,5.0,23,30.06,10.0,North,6.9,-,N/A,,Clear,360,2012-10-08 06:35:00
11:55 PM,44.6,6.8,21,30.06,10.0,North,5.8,-,N/A,,Clear,350,2012-10-08 06:55:00